Location: Sibbertoft
(52.4361°N, 1.0300°W)
Time: 02:51:48
(UTC+00:00)

N. Korean satellite - Visible Passes

Search period start: 20 January 2019 00:00
Search period end: 30 January 2019 00:00
Orbit: 458 x 509 km, 97.2° (Epoch: 19 January)

Date Brightness Start Highest point End Pass type
(mag) Time Alt. Az. Time Alt. Az. Time Alt. Az.
20 Jan 6.8 06:26:33 10° NNE 06:30:19 76° ESE 06:34:00 10° S visible
20 Jan 6.6 17:07:31 10° SSE 17:11:11 69° ENE 17:14:55 10° N visible
20 Jan 10.1 18:43:18 10° WSW 18:45:05 13° W 18:46:52 10° WNW visible
21 Jan 8.1 06:02:02 10° NNE 06:05:35 40° E 06:09:05 10° S visible
21 Jan 9.4 18:17:13 10° SW 18:20:10 22° W 18:23:10 10° NW visible
22 Jan 9.2 05:37:45 10° NE 05:40:46 23° E 05:43:44 10° SSE visible
22 Jan 7.2 07:10:52 10° N 07:14:19 36° WNW 07:17:43 10° SW visible
22 Jan 8.2 17:51:51 10° SSW 17:55:21 39° W 17:58:54 10° NNW visible
23 Jan 10.0 05:13:59 10° ENE 05:15:51 13° E 05:17:42 10° ESE visible
23 Jan 6.6 06:46:02 10° N 06:49:44 66° WNW 06:53:23 10° SSW visible
23 Jan 6.9 17:26:55 10° S 17:30:37 73° WSW 17:34:22 10° NNW visible
24 Jan 7.0 06:21:21 10° NNE 06:25:04 66° ESE 06:28:43 10° S visible
24 Jan 10.0 18:37:39 10° WSW 18:39:47 15° W 18:41:57 10° NW visible
25 Jan 8.4 05:56:51 10° NNE 06:00:19 35° E 06:03:42 10° SSE visible
25 Jan 9.2 18:11:46 10° SSW 18:14:53 25° W 18:18:02 10° NW visible
26 Jan 9.4 05:32:38 10° NE 05:35:28 20° E 05:38:14 10° SE visible
26 Jan 7.0 07:05:35 10° N 07:09:05 41° WNW 07:12:32 10° SW visible
26 Jan 8.0 17:46:30 10° S 17:50:05 44° W 17:53:42 10° NNW visible
27 Jan 10.2 05:09:08 10° ENE 05:10:31 12° E 05:11:53 10° ESE visible
27 Jan 6.5 06:40:46 10° N 06:44:29 75° WNW 06:48:06 10° SSW visible
27 Jan 6.8 17:21:37 10° SSE 17:25:21 83° W 17:29:07 10° NNW visible
28 Jan 7.3 06:16:07 10° NNE 06:19:47 58° E 06:23:22 10° S visible
28 Jan 9.9 18:32:02 10° SW 18:34:27 16° W 18:36:54 10° NW visible
29 Jan 8.6 05:51:40 10° NNE 05:55:00 31° E 05:58:16 10° SSE visible
29 Jan 9.0 18:06:20 10° SSW 18:09:34 28° W 18:12:51 10° NW visible
